Sunday, October 26, 2014
07:03 UTC
  |  Log In   |  Register Free
Airport Search:

Caruthersville Memorial Airport
(M05)

Caruthersville Memorial Airport Diagram
No Airport Diagram Available

FAA data valid effective September 18, 2014 - November 13, 2014 (unless otherwise noted).

 
 
 
 
 
 
 
 
 
 
 
 
 
 

Current Aviation Weather for Caruthersville Memorial Airport (M05)

METAR data is unavailable for M05. The nearest METAR location is at KHKA (15.6 nm SW from M05).

The most recent METAR observation for KHKA was updated at: 0608
METAR Summary (Translated METAR)
KHKA
260553Z AUTO 19004KT 10SM CLR 18/17 A3000 RMK AO2 SLP156 T01780167 10233 20178 402890133 56010
(15.6 nm SW from M05)
KDYR
260555Z 00000KT 3/4SM VV005 16/10 A3001 RMK AO1 10210 20160 57010
(16.6 nm SE from M05)
TAF
No TAF information found within 50 nm of KBYH
  Airport Weather Conditions for M05

Current weather conditions are
not available for M05


The nearest NOAA weather station
is at HKA, (15.6 nm SW from M05)
  
 Current Weather at HKA
66° F
Fair
South winds at 5.8 mph
HKA NOAA Radar

Pressure: 30.00 in
Humidity: 90%
Wind: South at 5.8 MPH (5 KT)
Dew Point: 63.0°F
Visibility: 10.00 mi


Airport Weather Forecast for M05

Translated METAR and TAF for KBYH
Translated METAR for KBYH (0658 UTC 26 October 2014)
found at http://aviationweather.gov/adds/metars/
 
You entered "KBYH"

Sorry, either there are no data available for your request or you did not enter any valid ICAO airport abbreviations.

See stations.txt for a list of known METAR and TAF locations. Then go back to the ADDS METARs or TAFs page and try again
 
Please try again and, if problems persist, then send mail to ncep.awc.adds@noaa.gov

Find All Airport Services Find A Hotel Find A Rental Car Find A Golf Course Find A Restaurant $100 Hamburger



FBO's on the Field
FBO Company Facility Photos Services Transportation Aviation Fuel Prices: Prices include tax
Catering Weather Repair Courtesy Rental Type 100LL JetA JetA+ MOGAS 8087
 
Add another FBO Facility Photos Catering Weather Repair Courtesy Rental Type 100LL JetA JetA+ MOGAS 8087
Services Transportation Aviation Fuel Prices: Prices include tax
There are no FBO's currently reporting fuel at M05. List your FBO now


model-print
model-print
model-print
model-print